Regional Weather Roundup
Issued by NWS

Home | Current Version | Previous Version | Graphics & Text | Print | Product List | Glossary On
Versions: 1 2 3 4 5 6 7 8 9 10 11 12 13 14 15 16 17 18 19 20 21 22 23 24 25 26 27 28 29 30 31 32 33 34 35 36 37 38 39 40 41 42 43 44 45 46 47 48 49 50
153
ASUS43 KDTX 280310
RWRMI
MICHIGAN HOURLY REGIONAL WEATHER ROUNDUP
NATIONAL WEATHER SERVICE DETROIT/PONTIAC MI
1100 PM EDT WED JUL 27 2016

NOTE: "FAIR" INDICATES FEW OR NO CLOUDS BELOW 12,000 FEET WITH NO
SIGNIFICANT WEATHER AND/OR OBSTRUCTION TO VISIBILITY.

MIZ047>049-052>055-059>063-066>070-074>076-081>083-280400-
SOUTHEAST LOWER MICHIGAN

CITY           SKY/WX    TMP DP  RH WIND       PRES   REMARKS
ADRIAN         CLEAR     74  66  76 N5        29.97R
ALMA           CLEAR     67  67 100 CALM      29.97S FOG
ANN ARBOR      CLEAR     75  64  68 NW3       29.96R
BAD AXE        PTCLDY    67  66  96 SW3       29.96S
CARO             N/A     64  63  97 CALM      29.95S FOG
DETROIT CITY   PTCLDY    77  68  73 E9        29.94S
DETROIT        MOCLDY    80  63  55 N5        29.95R
FLINT          CLOUDY    72  64  76 S3        29.96S
GROSSE ILE     CLEAR     79  65  62 N3        29.94R
HILLSDALE      CLEAR     71  63  76 CALM      29.98R
HOWELL         CLOUDY    69  64  85 CALM      29.97F

CITY           SKY/WX    TMP DP  RH WIND       PRES   REMARKS
JACKSON        CLEAR     69  64  84 CALM      29.98R
LAMBERTVILLE   PTCLDY    76  66  71 CALM      29.96R
LANSING        CLOUDY    71  64  78 CALM      29.97R
LAPEER         FAIR      65  63  91 CALM      29.96S
MASON          CLOUDY    68  63  83 SE3       29.97S
MONROE         PTCLDY    75  68  79 CALM      29.94R
MT. CLEMENS    PTCLDY    74  67  78 E7        29.93S
PONTIAC        PTCLDY    73  64  73 NW5       29.96R
PORT HOPE        N/A     69  67  93 SW5       29.94R
PORT HURON     PTCLDY    68  66  94 S5        29.94S
TRI CITIES     CLEAR     69  68  96 SW5       29.97R
MIDLAND        FAIR      67  67  99 CALM      29.95S FOG
TROY           PTCLDY    78  64  60 NE5       29.97R
SAGINAW HB     CLEAR     66  64  94 SW3       29.96S
$$
MIZ043>046-050>051-056>058-064>065-071>073-077>080-280400-
SOUTHWEST LOWER MICHIGAN

CITY           SKY/WX    TMP DP  RH WIND       PRES   REMARKS
BATTLE CREEK   CLEAR     72  63  73 E3        29.98R
BENTON HARBOR  PTCLDY    71  65  81 CALM      29.95S
BIG RAPIDS     PTCLDY    69  69 100 CALM      29.96S FOG
COLDWATER      CLEAR     71  65  82 CALM      29.97S
FREMONT        FAIR      71  71 100 N6        29.96R
HOLLAND        MOCLDY    72  66  81 SE5       29.96R
GRAND RAPIDS   MOCLDY    71  64  78 NE5       29.97R
IONIA          FAIR      67  62  84 CALM      29.96R
KALAMAZOO      CLEAR     73  64  73 CALM      29.97R
LUDINGTON      CLOUDY    69  66  90 CALM      29.95S
MARSHALL       PTCLDY    69  64  84 CALM      29.97S
MOUNT PLEASANT CLEAR     68  67  98 CALM      29.96S
MUSKEGON       MOCLDY    73  70  90 SW3       29.95R
SOUTH HAVEN    CLEAR     69  67  93 CALM      29.96R
$$
MIZ016>042-280400-
NORTHERN LOWER MICHIGAN

CITY           SKY/WX    TMP DP  RH WIND       PRES   REMARKS
ALPENA         CLOUDY    68  66  93 N3        29.95F
BEAVER ISLAND  CLOUDY    67  60  77 N5        29.98S
BELLAIRE       CLOUDY    70  66  88 CALM      29.96R
CADILLAC       CLOUDY    69  66  90 CALM      29.98R
CHARLEVOIX     PTCLDY    72  65  80 N6        30.00R
FRANKFORT      PTCLDY    72  65  80 N3        29.95S
GAYLORD        MOCLDY    72  61  68 NE8       29.99R
GRAYLING       MOCLDY    71  65  81 NW6       29.98S
HARBOR SPRINGS PTCLDY    70  60  71 E3        29.96S
HOUGHTON LAKE  CLOUDY    71  68  90 CALM      29.98R
MANISTEE       CLOUDY    70  64  81 CALM      29.95R
OSCODA         MOCLDY    68  67  94 SW3       29.95S
PELLSTON       MOCLDY    67  59  75 CALM      29.97S
ROGERS CITY    CLOUDY    69  58  68 CALM      29.98R
TRAVERSE CITY  CLOUDY    74  67  78 N5        29.94R
$$
MIZ007>008-015-280400-
EASTERN UPPER MICHIGAN

CITY           SKY/WX    TMP DP  RH WIND       PRES   REMARKS
KINROSS        MOCLDY    62  57  83 W6        29.99R
MACKINAC ISLAN CLOUDY    65  58  76 N7        29.97S
NEWBERRY       CLOUDY    61  59  94 NW3       30.00S
S. S. MARIE    PTCLDY    64  56  75 NW9       29.97R
MUNISING         N/A     64  60  87 N3        30.00F
$$
MIZ004>006-011>014-085-280400-
CENTRAL UPPER MICHIGAN

CITY           SKY/WX    TMP DP  RH WIND       PRES   REMARKS
MANISTIQUE     CLOUDY    63  59  86 N6        29.99S
ESCANABA       CLOUDY    64  55  72 N7        29.98S
MENOMINEE      LGT RAIN N/A N/A N/A N5        29.99R
SAWYER-GWINN   CLOUDY    60  57  90 N5        30.03S
$$
MIZ001>003-009>011-084-280400-
WESTERN UPPER MICHIGAN

CITY           SKY/WX    TMP DP  RH WIND       PRES   REMARKS
IRON MOUNTAIN  LGT RAIN  64  56  75 W3        30.03R
HOUGHTON       CLOUDY    60  58  92 NE3       30.03S
COPPER HARBOR    N/A     62  57  83 W5        30.01S
IRONWOOD       CLOUDY    63  63 100 E7        30.02R
$$

ABBREVIATIONS USED IN REMARKS
   TC - TEMPERATURE IN CELSIUS
  WCI - WIND CHILL INDEX
   HX - HEAT INDEX
  VSB - VISIBILITY





USA.gov is the U.S. government's official web portal to all federal, state and local government web resources and services.